[ hide orbit diagram ]
For accurate long-term ephemerides, please instead use our Horizons system.This orbit viewer was implemented using two-body methods, and hence should not be used for determining accurate long-term trajectories (over several years or decades) or planetary encounter circumstances.
Orbital Elements at Epoch 2459200.5 (2020-Dec-17.0) TDB
Reference: JPL 17 (heliocentric ecliptic J2000)
Element | Value | Uncertainty (1-sigma) | Units |
e | .01283390933362318 | 6.4578e-08 | |
a | 2.804120358935309 | 2.0548e-08 | au |
q | 2.768132532488166 | 1.843e-07 | au |
i | 5.516929530153817 | 6.6185e-06 | deg |
node | 213.2558959102495 | 5.389e-05 | deg |
peri | 309.3669639705368 | 0.00020975 | deg |
M | 221.5226693798236 | 0.00020612 | deg |
tp | 2459860.235091799553 (2022-Oct-07.73509180) | 0.00098442 | TDB |
period | 1715.115622060049 4.70 | 1.8852e-05 5.161e-08 | d yr |
n | .2098983854905357 | 2.3071e-09 | deg/d |
Q | 2.840108185382452 | 2.0811e-08 | au |
|
| | Orbit Determination Parameters
Additional Information
|
[ show covariance matrix ]
Physical Parameter Table
Parameter |
Symbol |
Value |
Units |
Sigma |
Reference |
Notes |
absolute magnitude |
H |
15.9 |
|
n/a |
MPO437026 |
|
|
214067 (2004 FK111) Discovered 2004-Mar-26 by LINEAR at Socorro |
Reference: 20090509/Numbers.arc | Last Updated: 2009-05-11 |
|
[ hide close-approach data ]
Close-Approach Data ...sorted by Date/Time (TDB)
|
Date/Time (TDB) |
Time Uncertainty (days_HH:MM) |
Body |
Nominal Distance (au) |
Minimum Distance (au) |
Maximum Distance (au) |
V-relative (km/s) |
V-infinity (km/s) |
JD (TDB) |
Time Uncertainty (minutes) |
Semi-major axis (km) |
Semi-minor axis (km) |
range-LOV angle (deg) |
N-sigma |
BP |
Orbit Ref. |
Reference |
Modified |
1925-Nov-16 00:06 |
00:01 |
Inter |
0.0185890392609445 |
0.0185855706682525 |
0.0185925553692541 |
5.62553934075392 |
5.62553920076374 |
2424470.504321200 |
1.30854148363376 |
1636.40166420052 |
72.00298092634 |
84.4364849767609 |
38421.1721746833 |
T |
17 |
CATAB v2.0f-lin.ifort 2021-Feb-24 12:44:16 |
2021-Feb-24 12:44 |
2129-Nov-25 05:34 |
00:05 |
Europ |
0.0352421216039505 |
0.035201954139196 |
0.0352823144854712 |
2.98026774043395 |
2.98026763924004 |
2498989.732094467 |
5.0184704741547 |
2495.83754278982 |
46.9980538380897 |
36.6974385647867 |
66975.3323692616 |
T |
17 |
CATAB v2.0f-lin.ifort 2021-Feb-24 12:44:16 |
2021-Feb-24 12:44 |
|
|